Share

Atka, AK

9:01 PM HADT on April 23, 2014 (GMT -0900)
Atka (PAAK) Elev 56 ft | 52.22 °N, 174.21 °W | Change Station

Current weather conditions updated 5 minutes ago

Mostly Cloudy
Mostly Cloudy
39 °F
Feels Like 32 °F
N
10
Wind Variable Wind from South
Sunrise 7:23 AM
Sunset 9:50 PM
Moon Waning Crescent

Tomorrow is forecast to be Cooler than today. Rain and snow.

Pressure 29.42 in
Visibility 10.0 miles
Clouds Few 3100 ft
Mostly Cloudy 4200 ft
Windchill 32 °F
Dew Point 30 °F
Humidity 70%
Rainfall 0.00 in
Snow Depth Not available.
UV 0 out of 16
Pollen Not available.
Air Quality Not available.
Flu Activity Sporadic
METAR PAAK 240556Z 19009KT 10SM FEW031 BKN042 04/M01 A2942 RMK AO1 10060 20030 57010

More Conditions Fewer Conditions

Pressure 29.42 in
Visibility 10.0 miles
Clouds Few 3100 ft
Mostly Cloudy 4200 ft
Windchill 32 °F
Dew Point 30 °F
Humidity 70%
Rainfall 0.00 in
Snow Depth Not available.
UV 0 out of 16
Pollen Not available.
Air Quality Not available.
Flu Activity Sporadic
METAR PAAK 240556Z 19009KT 10SM FEW031 BKN042 04/M01 A2942 RMK AO1 10060 20030 57010

More Conditions Fewer Conditions

10-Day Weather Forecast

Almanac

Astronomy

Apr. 23, 2014 Rise Set
Actual Time 7:23 AM HADT 9:50 PM HADT
Civil Twilight 6:45 AM HADT 10:27 PM HADT
Nautical Twilight 5:58 AM HADT 11:15 PM HADT
Astronomical Twilight 5:02 AM HADT 12:12 AM HADT
Moon 4:48 AM HADT (4/23) 3:32 PM HADT (4/23)
Length of Visible Light 15h 41m
Length of Day
14h 26m
Tomorrow will be 3m 46s longer.
Waning Crescent, 29% of the Moon is Illuminated
Apr 24
Waning Crescent
Apr 29
New
May 6
First Quarter
May 14
Full
May 21
Last Quarter

Yesterday's Extremes

State Highs State Lows

Community

  • Stacked
    Stacked
  • clouds approaching Red Sox Nation
    clouds approaching Red Sox Nation
  • Balance
    Balance
  • Nestled In
    Nestled In
  • Stunning Sunrise
    Stunning Sunrise

WunderPhotos

Upload Photos

1,704,566 photos uploaded!

WunderBlogs® & News

Nearby

Snow Depth

Station Depth Elevation
Rocky Point 1 in 500 ft
Port Graham 2 in 300 ft
Mcneil Canyon 3 in 1320 ft
MF Bradley River 17 in 2300 ft
Nuka Glacier 26 in 1250 ft

Coastal Water Temperatures

Place Temperature
No Stations Reporting

Earthquake Activity

City Distance Mag. Time & Date
No recent earthquake activity has been reported nearby.
Minimum magnitude displayed is 2.5.

Nearby Weather Stations

There are no personal weather stations in this area.

What do you think?

We're not finished. Please let us know what you like, what you don't like, and what you are still missing.